Regional Weather Roundup
Issued by NWS Newport/Morehead, NC

Current Version | Previous Version | Text Only | Print | Product List | Glossary On
Versions: 1 2 3 4 5 6 7 8 9 10 11 12 13 14 15 16 17 18 19 20 21 22 23 24 25 26 27 28 29 30 31 32 33 34 35 36 37 38 39 40 41 42 43 44 45 46 47 48 49 50
000 ASUS42 KMHX 300325 RWRMHX WEATHER ROUNDUP FOR EASTERN NORTH CAROLINA NATIONAL WEATHER SERVICE NEWPORT/MOREHEAD CITY NC 1100 PM EDT WED JUL 29 2015 NOTE: "FAIR" INDICATES FEW OR NO CLOUDS BELOW 12,000 FEET WITH NO SIGNIFICANT WEATHER AND/OR OBSTRUCTIONS TO VISIBILITY NCZ015>017-031-032-045>047-102-103-300400- NORTH COAST CITY SKY/WX TMP DP RH WIND PRES REMARKS EDENTON N/A 77 69 76 SE3 30.01R ELIZABETH CITY CLEAR 78 71 79 SE5 30.00S KITTY HAWK PTCLDY 79 69 72 SE6 29.99S MANTEO PTCLDY 78 71 80 SE5 30.00S $$ NCZ045>047-081-094-103-104-300400- CENTRAL COAST CITY SKY/WX TMP DP RH WIND PRES REMARKS FRISCO PTCLDY 80 75 84 E9 29.98S SWANQUARTER N/A 75 N/A N/A NE3 29.94F $$ NCZ095-097-098-100-101-300400- SOUTHERN COAST CITY SKY/WX TMP DP RH WIND PRES REMARKS BEAUFORT CLEAR 77 76 96 NE5 29.97S CEDAR ISLAND N/A 81 N/A N/A NE12 30.03R JACKSONVILLE CLEAR 80 71 74 E8 29.98R PINEY ISLAND CLEAR N/A N/A N/A MISG 29.97S WILMINGTON CLEAR 78 74 87 NE3 29.97S $$ NCZ011>013-027>030-043-044-078>080-089-090>093-098-300400- COASTAL PLAIN CITY SKY/WX TMP DP RH WIND PRES REMARKS AHOSKIE CLEAR 75 69 81 SE3 30.01R CLINTON CLEAR 76 73 87 CALM 29.99F ELIZABETHTOWN CLEAR 77 69 76 CALM 29.99S GOLDSBORO CLEAR 78 70 77 SE1 29.97R GREENVILLE CLEAR 77 72 83 CALM 30.02R HAVELOCK CLEAR 79 74 84 E3 29.99S KENANSVILLE CLEAR 73 70 90 CALM 30.00R KINSTON CLEAR 78 71 77 E3 30.00R NEW BERN CLEAR 77 71 82 CALM 30.00R RICHLANDS CLEAR 73 66 78 CALM 29.99R ROCKY MOUNT CLEAR 79 71 76 CALM 30.00R WASHINGTON CLEAR 75 71 86 E3 30.00S WHITEVILLE CLEAR 76 71 84 CALM 29.98S $$ AMZ130-135-150-152-154-156-158-170-250-252-270-ANZ085-086-088-633-658-670-300400- MARINE OBSERVATIONS STATION/POSITION TIME TEMP WIND PRES WAVE SWELL AIR SEA DIR/SP/G HT/PER HT/PER (UTC) (F) (DEG/KT/KT) (MB) (FT/S) (FT/S) CHESAPEAKE LIGHT 0300 80 150/ 17/ 18 1016.2 64 E VA BEACH 0250 81 82 150/ 12/ 14 1015.9 2/ 5 2/10 DUCK 0300 77 N/A 2 E DUCK 0211 76 N/A 2/10 OREGON INLET 0300 79 N/A 13E OREGON INLT 0300 81 N/A 3/ 6 HATTERAS CG 0300 81 N/A DIAMOND BUOY 0250 83 85 120/ 14/ 16 1014.9 4/ 6 3/ 6 CAPE LOOKOUT 0300 81 50/ 10/ 11 1014.3 BEAUFORT LAB 0300 78 N/A 30 SE NEW RVR IN NOT AVBL 27 SE WRIGHTSVLE 0300 78 82 50/ 10/ 12 N/A 5 SE WRIGHTSVLE 0208 82 82 80/ 12/ 17 1014.6 225 S CAPE HAT 0250 82 82 200/ 21/ 25 1015.6 6/ 6 41 SE CHARLESTON 0250 83 85 60/ 8/ 10 1013.4 3/ 6 3/ 6 $$

USA.gov is the U.S. government's official web portal to all federal, state and local government web resources and services.